| time (UTC) | temp C | wind direction | speed KPH | gust KPH | rain 1hr cm | rain 24hr cm | rain mn cm | humidity % | barometer mb |
| 20260905223005 | 20 | 328 | 4.8 | 9.7 | 0.00 | 0.05 | 0.00 | 65 | 1029.1 |
| 20260905220004 | 20 | 322 | 3.2 | 8.0 | 0.00 | 0.05 | 0.00 | 64 | 1028.8 |
| 20260905215004 | 20 | 319 | 1.6 | 9.7 | 0.00 | 0.05 | 0.05 | 64 | 1028.8 |
| 20260905213005 | 21 | 302 | 4.8 | 9.7 | 0.00 | 0.05 | 0.05 | 63 | 1028.4 |
| 20260905212005 | 21 | 120 | 4.8 | 11.3 | 0.00 | 0.05 | 0.05 | 62 | 1028.4 |
| 20260905211005 | 21 | 226 | 8.0 | 19.3 | 0.00 | 0.05 | 0.05 | 62 | 1028.1 |
| 20260905210005 | 21 | 221 | 11.3 | 19.3 | 0.00 | 0.05 | 0.05 | 61 | 1028.1 |
| 20260905205005 | 21 | 354 | 3.2 | 8.0 | 0.00 | 0.05 | 0.05 | 61 | 1028.1 |
| 20260905204004 | 21 | 355 | 3.2 | 11.3 | 0.00 | 0.05 | 0.05 | 60 | 1028.1 |
| 20260905202005 | 21 | 1 | 4.8 | 12.9 | 0.00 | 0.05 | 0.05 | 60 | 1027.8 |
| 20260905200005 | 21 | 10 | 3.2 | 8.0 | 0.00 | 0.05 | 0.05 | 61 | 1027.8 |
| 20260905195005 | 21 | 275 | 4.8 | 8.0 | 0.00 | 0.05 | 0.05 | 61 | 1027.8 |
| 20260905194005 | 21 | 73 | 3.2 | 14.5 | 0.00 | 0.05 | 0.05 | 61 | 1027.8 |
| 20260905193005 | 21 | 237 | 9.7 | 14.5 | 0.00 | 0.05 | 0.05 | 61 | 1027.8 |
| 20260905192004 | 21 | 195 | 4.8 | 9.7 | 0.00 | 0.05 | 0.05 | 61 | 1027.4 |
| 20260905184005 | 22 | 242 | 3.2 | 9.7 | 0.00 | 0.05 | 0.05 | 59 | 1027.1 |
| 20260905183005 | 22 | 1 | 3.2 | 3.2 | 0.00 | 0.05 | 0.05 | 59 | 1027.1 |
| 20260905180005 | 22 | 82 | 4.8 | 11.3 | 0.00 | 0.05 | 0.05 | 57 | 1026.8 |
| 20260905175005 | 22 | 214 | 3.2 | 11.3 | 0.00 | 0.05 | 0.05 | 57 | 1026.4 |
| 20260905174004 | 22 | 172 | 4.8 | 8.0 | 0.00 | 0.05 | 0.05 | 56 | 1026.4 |
| 20260905173004 | 22 | 14 | 1.6 | 3.2 | 0.00 | 0.05 | 0.05 | 55 | 1026.1 |
| 20260905170004 | 23 | 331 | 4.8 | 14.5 | 0.00 | 0.05 | 0.05 | 53 | 1026.1 |
| 20260905161005 | 25 | 313 | 3.2 | 12.9 | 0.00 | 0.05 | 0.05 | 50 | 1025.4 |
| 20260905155004 | 25 | 53 | 3.2 | 16.1 | 0.00 | 0.05 | 0.05 | 51 | 1025.4 |
| 20260905154004 | 25 | 131 | 3.2 | 20.9 | 0.00 | 0.05 | 0.05 | 50 | 1025.4 |
| 20260905153004 | 25 | 13 | 8.0 | 14.5 | 0.00 | 0.05 | 0.05 | 51 | 1025.4 |
| 20260905150004 | 25 | 226 | 4.8 | 9.7 | 0.00 | 0.05 | 0.05 | 50 | 1025.4 |
| 20260905144004 | 25 | 336 | 8.0 | 11.3 | 0.00 | 0.05 | 0.05 | 51 | 1025.4 |
| 20260905143005 | 25 | 329 | 4.8 | 12.9 | 0.00 | 0.05 | 0.05 | 51 | 1025.7 |
| 20260905142005 | 25 | 12 | 1.6 | 12.9 | 0.00 | 0.05 | 0.05 | 50 | 1025.7 |
| 20260905141005 | 25 | 276 | 8.0 | 12.9 | 0.00 | 0.05 | 0.05 | 52 | 1025.4 |
| 20260905140005 | 25 | 79 | 8.0 | 22.5 | 0.00 | 0.05 | 0.05 | 52 | 1025.4 |
| 20260905135005 | 24 | 353 | 4.8 | 16.1 | 0.00 | 0.05 | 0.05 | 52 | 1025.7 |
| 20260905130004 | 24 | 13 | 4.8 | 9.7 | 0.00 | 0.05 | 0.05 | 54 | 1025.7 |
| 20260905125004 | 23 | 298 | 3.2 | 12.9 | 0.00 | 0.05 | 0.05 | 54 | 1025.7 |
| 20260905124004 | 24 | 112 | 9.7 | 12.9 | 0.00 | 0.05 | 0.05 | 54 | 1025.7 |
| 20260905123004 | 23 | 247 | 8.0 | 14.5 | 0.00 | 0.05 | 0.05 | 56 | 1025.7 |
| 20260905122004 | 23 | 178 | 8.0 | 16.1 | 0.00 | 0.05 | 0.05 | 56 | 1025.7 |
| 20260905120005 | 23 | 205 | 9.7 | 19.3 | 0.00 | 0.05 | 0.05 | 56 | 1025.8 |
| 20260905115005 | 23 | 343 | 8.0 | 19.3 | 0.00 | 0.05 | 0.05 | 57 | 1026.1 |
| 20260905112005 | 23 | 217 | 8.0 | 14.5 | 0.00 | 0.05 | 0.05 | 58 | 1026.1 |
| 20260905111005 | 23 | 260 | 9.7 | 14.5 | 0.00 | 0.05 | 0.05 | 59 | 1026.1 |
| 20260905105005 | 22 | 279 | 9.7 | 19.3 | 0.00 | 0.05 | 0.05 | 61 | 1026.1 |
| 20260905103005 | 21 | 232 | 14.5 | 32.2 | 0.00 | 0.05 | 0.05 | 65 | 1026.4 |
| 20260905102005 | 21 | 230 | 9.7 | 16.1 | 0.03 | 0.05 | 0.05 | 65 | 1026.1 |
| 20260905101005 | 20 | 19 | 4.8 | 14.5 | 0.03 | 0.05 | 0.05 | 67 | 1026.4 |
| 20260905100005 | 20 | 321 | 9.7 | 14.5 | 0.03 | 0.05 | 0.05 | 68 | 1026.1 |
| 20260905093005 | 19 | 115 | 4.8 | 9.7 | 0.03 | 0.05 | 0.05 | 71 | 1026.1 |
| 20260905092004 | 18 | 3 | 3.2 | 8.0 | 0.00 | 0.03 | 0.03 | 73 | 1026.4 |
| 20260905091005 | 18 | 318 | 4.8 | 8.0 | 0.00 | 0.03 | 0.03 | 75 | 1026.4 |
| 20260905085005 | 17 | 303 | 3.2 | 4.8 | 0.00 | 0.03 | 0.03 | 77 | 1026.4 |
| 20260905084004 | 18 | 243 | 1.6 | 3.2 | 0.00 | 0.03 | 0.03 | 75 | 1026.4 |
| 20260905082005 | 18 | 102 | 1.6 | 8.0 | 0.00 | 0.03 | 0.03 | 70 | 1026.8 |
| 20260905081004 | 18 | 286 | 4.8 | 8.0 | 0.00 | 0.03 | 0.03 | 69 | 1026.8 |
| 20260905080005 | 18 | 23 | 4.8 | 9.7 | 0.00 | 0.03 | 0.03 | 70 | 1026.8 |
| 20260905075004 | 17 | 338 | 4.8 | 12.9 | 0.00 | 0.03 | 0.03 | 71 | 1027.1 |
| 20260905074004 | 17 | 194 | 9.7 | 11.3 | 0.00 | 0.03 | 0.03 | 70 | 1026.8 |
| 20260905073005 | 18 | 193 | 3.2 | 3.2 | 0.00 | 0.03 | 0.03 | 70 | 1027.1 |
| 20260905070005 | 18 | 351 | 3.2 | 9.7 | 0.00 | 0.03 | 0.03 | 70 | 1026.4 |
| 20260905065005 | 18 | 4 | 3.2 | 4.8 | 0.00 | 0.03 | 0.03 | 67 | 1026.4 |
| 20260905064005 | 18 | 337 | 3.2 | 4.8 | 0.00 | 0.03 | 0.03 | 65 | 1026.8 |
| 20260905063005 | 18 | 118 | 1.6 | 12.9 | 0.00 | 0.03 | 0.03 | 64 | 1026.1 |
| 20260905061004 | 19 | 329 | 11.3 | 24.1 | 0.00 | 0.03 | 0.03 | 61 | 1025.4 |
| 20260905060005 | 20 | 333 | 14.5 | 19.3 | 0.00 | 0.03 | 0.03 | 58 | 1025.4 |
| 20260905054004 | 20 | 333 | 14.5 | 24.1 | 0.00 | 0.03 | 0.03 | 57 | 1025.1 |
| 20260905052004 | 20 | 354 | 12.9 | 19.3 | 0.00 | 0.03 | 0.03 | 59 | 1024.0 |
| 20260905051004 | 20 | 355 | 14.5 | 19.3 | 0.00 | 0.03 | 0.03 | 60 | 1023.4 |
| 20260905050005 | 20 | 5 | 8.0 | 25.7 | 0.00 | 0.03 | 0.03 | 61 | 1023.4 |
| 20260905043005 | 19 | 351 | 9.7 | 14.5 | 0.00 | 0.03 | 0.03 | 65 | 1023.4 |
| 20260905042004 | 19 | 20 | 6.4 | 11.3 | 0.00 | 0.03 | 0.03 | 67 | 1023.0 |
| 20260905041005 | 18 | 9 | 6.4 | 14.5 | 0.00 | 0.03 | 0.03 | 71 | 1022.7 |
| 20260905040004 | 18 | 330 | 9.7 | 14.5 | 0.00 | 0.03 | 0.03 | 73 | 1022.7 |
| 20260905035004 | 19 | 345 | 4.8 | 12.9 | 0.00 | 0.03 | 0.03 | 71 | 1022.7 |
| 20260905034004 | 21 | 331 | 12.9 | 25.7 | 0.03 | 0.03 | 0.03 | 62 | 1022.7 |
| 20260905033004 | 21 | 5 | 9.7 | 14.5 | 0.03 | 0.03 | 0.03 | 65 | 1022.0 |
| 20260905032004 | 21 | 334 | 4.8 | 16.1 | 0.03 | 0.03 | 0.03 | 69 | 1022.0 |
| 20260905031005 | 22 | 349 | 11.3 | 16.1 | 0.03 | 0.03 | 0.03 | 70 | 1021.3 |
| 20260905030004 | 23 | 355 | 11.3 | 16.1 | 0.03 | 0.03 | 0.03 | 70 | 1021.3 |
| 20260905025004 | 24 | 169 | 4.8 | 8.0 | 0.03 | 0.03 | 0.03 | 62 | 1020.0 |
| 20260905023004 | 24 | 5 | 3.2 | 8.0 | 0.00 | 0.00 | 0.00 | 57 | 1019.6 |
| 20260905022004 | 25 | 63 | 1.6 | 11.3 | 0.00 | 0.00 | 0.00 | 55 | 1019.6 |
| 20260905021004 | 25 | 27 | 4.8 | 11.3 | 0.00 | 0.00 | 0.00 | 51 | 1020.3 |
| 20260905020005 | 25 | 199 | 1.6 | 3.2 | 0.00 | 0.00 | 0.00 | 49 | 1019.6 |
| 20260905014004 | 26 | 289 | 4.8 | 9.7 | 0.00 | 0.00 | 0.00 | 48 | 1019.6 |
| 20260905013004 | 26 | 213 | 4.8 | 9.7 | 0.00 | 0.00 | 0.00 | 48 | 1019.3 |
| 20260905012004 | 26 | 258 | 3.2 | 4.8 | 0.00 | 0.00 | 0.00 | 48 | 1019.3 |
| 20260905011004 | 26 | 154 | 3.2 | 9.7 | 0.00 | 0.00 | 0.00 | 48 | 1019.3 |
| 20260905010005 | 26 | 202 | 1.6 | 8.0 | 0.00 | 0.00 | 0.00 | 48 | 1019.3 |
| 20260905005005 | 26 | 248 | 3.2 | 9.7 | 0.00 | 0.00 | 0.00 | 48 | 1019.3 |
| 20260905003004 | 25 | 160 | 3.2 | 4.8 | 0.00 | 0.00 | 0.00 | 49 | 1019.3 |
| 20260905001004 | 25 | 146 | 1.6 | 1.6 | 0.00 | 0.00 | 0.00 | 51 | 1019.0 |
| 20260905000004 | 25 | 60 | 0.0 | 3.2 | 0.00 | 0.00 | 0.00 | 51 | 1019.3 |
| 20260904234004 | 24 | 93 | 1.6 | 1.6 | 0.00 | 0.00 | 0.00 | 52 | 1019.3 |
| 20260904232004 | 23 | 80 | 0.0 | 0.0 | 0.00 | 0.00 | 0.00 | 54 | 1019.3 |
| 20260904231005 | 24 | 89 | 0.0 | 1.6 | 0.00 | 0.00 | 0.00 | 52 | 1018.6 |
| 20260904230005 | 25 | 96 | 0.0 | 1.6 | 0.00 | 0.00 | 0.00 | 51 | 1019.0 |
| 20260904225005 | 25 | 93 | 1.6 | 1.6 | 0.00 | 0.00 | 0.00 | 51 | 1018.6 |
| 20260904224004 | 25 | 105 | 0.0 | 3.2 | 0.00 | 0.00 | 0.00 | 51 | 1018.6 |